[[{"header":{"parameterUnit":"m.s-1","parameterCategory":1,"la1":30.2991,"la2":30.254,"lo1":-89.0895,"lo2":-89.0444,"dy":0.0017,"dx":0.0017,"nx":28,"ny":28,"refTime":"2023-08-15T09:00:00:Z","depth":0,"parameterNumber":2,"parameterNumberName":"U-component_of_WINDS"},"data":[0,0,0,0,0,0,0,0,0,0,0,0,0,0,0,0,0,0,0,0,0,0,0,0,0,0,0,0,0,0,0,0,0,0,0,0,0,0,0,0,0,0,0,0,0,0,0,0,0,0,0,0,0,0,0,0,0,0,-1.0139,-1.0139,0,-1.0128,-1.0128,-1.0128,-1.0111,-1.0111,-1.011,-1.011,-1.0098,-1.0098,-1.0098,0,0,0,0,0,0,0,0,0,0,0,0,0,-1.0146,-1.0146,-1.0139,-1.0139,-1.0139,-1.0128,-1.0128,-1.0128,-1.0111,-1.0111,-1.011,-1.011,-1.0098,-1.0098,-1.0098,0,0,0,0,0,0,0,0,0,0,0,0,0,-1.014,-1.0146,-1.0139,-1.0129,-1.0128,-1.0128,-1.0128,-1.0128,-1.0111,-1.0111,-1.011,-1.011,-1.0098,-1.0098,-1.0098,-1.0106,0,0,-1.0097,-1.0097,0,0,0,0,0,0,0,0,-1.014,-1.014,-1.0131,-1.013,-1.0129,-1.012,-1.0126,-1.012,-1.0111,-1.0118,-1.011,-1.011,-1.0106,-1.0105,-1.0104,-1.0105,-1.0105,-1.0097,-1.0097,-1.0097,-1.0097,0,0,0,0,0,0,0,-1.0141,-1.014,-1.0135,-1.0131,-1.0129,-1.0126,-1.0124,-1.0125,-1.0114,-1.0117,-1.0116,-1.0115,-1.0105,-1.0104,-1.0103,-1.0105,-1.0097,-1.0097,-1.0097,-1.0097,-1.0114,-1.0115,0,0,0,0,0,0,-1.0143,-1.0141,-1.0135,-1.0134,-1.0134,-1.0126,-1.0124,-1.0124,-1.0114,-1.0112,-1.0115,-1.0114,-1.0104,-1.0103,-1.0103,-1.0113,-1.0097,-1.0097,-1.0097,-1.0114,-1.0114,-1.0115,0,0,0,0,0,0,-1.0143,-1.0142,-1.0135,-1.0137,-1.0136,-1.0126,-1.0126,-1.0124,-1.0122,-1.0113,-1.0111,-1.0116,-1.0104,-1.0103,-1.0106,-1.0112,-1.0097,-1.0097,-1.0113,-1.0114,-1.0115,-1.0132,0,0,0,0,0,0,-1.0143,-1.0143,-1.0145,-1.0137,-1.0136,-1.0138,-1.0126,-1.0124,-1.0122,-1.0121,-1.0113,-1.0111,-1.0103,-1.0106,-1.0106,-1.0111,-1.0097,-1.0112,-1.0113,-1.0114,-1.013,-1.0133,-1.0135,0,0,0,0,0,-1.0144,-1.015,-1.0146,-1.0145,-1.0139,-1.0139,-1.0138,-1.0129,-1.0123,-1.0126,-1.012,-1.0111,-1.0112,-1.0106,-1.0106,-1.0112,-1.0112,-1.0113,-1.0114,-1.0129,-1.0132,-1.0135,0,0,0,0,0,0,-1.0158,-1.0149,-1.0144,-1.0148,-1.0144,-1.0136,-1.0139,-1.0132,-1.013,-1.0129,-1.0118,-1.0116,-1.0121,-1.0117,-1.0111,-1.012,-1.0111,-1.0112,-1.0122,-1.0125,-1.0127,-1.0128,-1.0097,0,0,0,0,0,-1.0162,-1.0163,-1.0154,-1.0159,-1.0157,-1.0149,-1.0148,-1.0142,-1.0138,-1.0136,-1.013,-1.0126,-1.0126,-1.0125,-1.0124,-1.013,-1.0129,-1.0134,-1.0137,-1.0139,-1.0139,-1.0143,-1.0146,-1.0118,-1.0118,-1.0118,0,0,-1.017,-1.0165,-1.0165,-1.0162,-1.0158,-1.0159,-1.0147,-1.0148,-1.0149,-1.0136,-1.0138,-1.0134,-1.013,-1.0134,-1.0136,-1.0131,-1.0147,-1.014,-1.0142,-1.0141,-1.0145,-1.0148,-1.015,-1.0119,-1.0119,-1.0119,0,0,-1.0184,-1.018,-1.0184,-1.0181,-1.0176,-1.0171,-1.0172,-1.0165,-1.0162,-1.0165,-1.0155,-1.0156,-1.0155,-1.0152,-1.0151,-1.0167,-1.0159,-1.0167,-1.0178,-1.0182,-1.0184,-1.0186,-1.0192,-1.0194,-1.0168,-1.0168,-1.0168,0,-1.0194,-1.0195,-1.0186,-1.0189,-1.0188,-1.0177,-1.0181,-1.0179,-1.0174,-1.0174,-1.0168,-1.0168,-1.0163,-1.0168,-1.0172,-1.0171,-1.0172,-1.0167,-1.0185,-1.0186,-1.0188,-1.0194,-1.0196,-1.0169,-1.0168,-1.0168,-1.0168,0,-1.0207,-1.0208,-1.0212,-1.0208,-1.0208,-1.0211,-1.0204,-1.0204,-1.0199,-1.0194,-1.0198,-1.0193,-1.0191,-1.0192,-1.0186,-1.0196,-1.0193,-1.0187,-1.0177,-1.0192,-1.0197,-1.0199,-1.017,-1.017,-1.0169,-1.0169,0,0,-1.0229,-1.0222,-1.0223,-1.0222,-1.0217,-1.0218,-1.0222,-1.022,-1.0221,-1.0219,-1.0222,-1.0222,-1.0216,-1.0215,-1.0209,-1.0213,-1.0226,-1.0205,-1.0205,-1.0209,-1.0238,-1.0243,-1.0245,-1.0222,-1.0222,-1.0222,-1.0238,0,-1.0242,-1.0247,-1.024,-1.0247,-1.0248,-1.0239,-1.0242,-1.024,-1.0236,-1.0237,-1.0233,-1.0234,-1.0226,-1.0225,-1.0228,-1.0224,-1.0232,-1.0223,-1.0224,-1.0224,-1.0225,-1.0248,-1.0252,-1.0267,-1.024,-1.024,-1.0241,0,-1.0257,-1.0256,-1.0263,-1.0259,-1.026,-1.0262,-1.0262,-1.0263,-1.026,-1.0257,-1.0257,-1.025,-1.0254,-1.0245,-1.025,-1.0244,-1.0245,-1.0243,-1.0243,-1.0243,-1.0233,-1.0247,-1.0272,-1.0274,-1.0244,-1.0243,-1.0243,0,-1.0272,-1.0273,-1.0278,-1.0277,-1.0272,-1.0275,-1.0273,-1.027,-1.0271,-1.027,-1.027,-1.027,-1.027,-1.027,-1.0264,-1.0259,-1.0271,-1.0261,-1.0268,-1.0269,-1.027,-1.027,-1.0295,-1.0271,-1.0271,-1.0271,-1.0271,0,-1.0287,-1.0292,-1.0284,-1.0287,-1.0292,-1.0286,-1.0291,-1.0289,-1.0287,-1.0289,-1.0282,-1.0284,-1.0276,-1.0278,-1.0274,-1.0279,-1.0279,-1.0277,-1.0275,-1.0277,-1.0277,-1.0277,-1.0275,-1.0272,-1.0272,-1.0272,-1.0272,0,-1.0304,-1.03,-1.0304,-1.03,-1.0299,-1.0303,-1.03,-1.0303,-1.03,-1.0303,-1.0303,-1.0298,-1.03,-1.0294,-1.0295,-1.0292,-1.03,-1.0297,-1.0301,-1.03,-1.0307,-1.0307,-1.0333,-1.0336,-1.031,-1.0311,-1.0311,0,-1.0314,-1.0317,-1.0314,-1.0316,-1.0315,-1.0317,-1.0317,-1.0311,-1.0312,-1.0311,-1.0314,-1.0316,-1.0316,-1.032,-1.0316,-1.0318,-1.0314,-1.0324,-1.0314,-1.0317,-1.0315,-1.0314,-1.0315,-1.0325,-1.0325,-1.0326,-1.0326,0,-1.0332,-1.033,-1.0331,-1.0332,-1.0333,-1.0333,-1.0333,-1.0335,-1.0328,-1.033,-1.0332,-1.0333,-1.0335,-1.0337,-1.0337,-1.0336,-1.033,-1.0329,-1.0331,-1.0332,-1.0334,-1.0334,-1.0306,-1.0328,-1.0328,-1.0328,-1.0328,-1.0328,-1.0345,-1.0348,-1.0347,-1.0349,-1.0349,-1.0349,-1.0352,-1.0349,-1.0351,-1.0352,-1.0349,-1.0352,-1.0352,-1.0352,-1.0351,-1.0354,-1.035,-1.0352,-1.0353,-1.0353,-1.0355,-1.0335,-1.0354,-1.0354,-1.0354,-1.0354,-1.0354,0,-1.0363,-1.0362,-1.0364,-1.0364,-1.0366,-1.0362,-1.0362,-1.0363,-1.0367,-1.0366,-1.0368,-1.0371,-1.0373,-1.0371,-1.0373,-1.0375,-1.0373,-1.0376,-1.0376,-1.0376,-1.0358,-1.0357,-1.0378,-1.0378,-1.0378,-1.0378,-1.0378,-1.0378,-1.0372,-1.0377,-1.0375,-1.0381,-1.038,-1.0383,-1.0384,-1.0385,-1.0385,-1.0389,-1.0391,-1.0389,-1.0388,-1.039,-1.0393,-1.0392,-1.0393,-1.0397,-1.0395,-1.0379,-1.0377,-1.0374,-1.0373,-1.0397,-1.0397,-1.0412,-1.0412,-1.0412]},{"header":{"parameterUnit":"m.s-1","parameterCategory":1,"la1":30.2991,"la2":30.254,"lo1":-89.0895,"lo2":-89.0444,"dy":0.0017,"dx":0.0017,"nx":28,"ny":28,"refTime":"2023-08-15T09:00:00:Z","depth":0,"parameterNumber":3,"parameterNumberName":"V-component_of_WINDS"},"data":[0,0,0,0,0,0,0,0,0,0,0,0,0,0,0,0,0,0,0,0,0,0,0,0,0,0,0,0,0,0,0,0,0,0,0,0,0,0,0,0,0,0,0,0,0,0,0,0,0,0,0,0,0,0,0,0,0,0,4.0126,4.0126,0,4.0122,4.0122,4.0122,4.0102,4.0102,4.0102,4.0101,4.0097,4.0097,4.0098,0,0,0,0,0,0,0,0,0,0,0,0,0,4.0118,4.0118,4.0126,4.0126,4.0126,4.0122,4.0122,4.0122,4.0103,4.0102,4.0101,4.0101,4.0097,4.0097,4.0098,0,0,0,0,0,0,0,0,0,0,0,0,0,4.0118,4.0118,4.0126,4.0116,4.0115,4.0122,4.0122,4.0122,4.0103,4.0102,4.0101,4.0101,4.0097,4.0097,4.0098,4.0115,0,0,4.0099,4.01,0,0,0,0,0,0,0,0,4.0118,4.0119,4.0117,4.0116,4.0115,4.0112,4.0117,4.0119,4.0103,4.0107,4.0101,4.01,4.0103,4.0103,4.0103,4.0114,4.0114,4.0099,4.01,4.01,4.01,0,0,0,0,0,0,0,4.0118,4.0119,4.0124,4.0117,4.0116,4.0112,4.0111,4.0118,4.0109,4.0107,4.0105,4.0105,4.0102,4.0103,4.0103,4.0114,4.0099,4.01,4.01,4.01,4.0139,4.0139,0,0,0,0,0,0,4.0119,4.0119,4.0125,4.0124,4.0115,4.0112,4.0112,4.0114,4.0109,4.0107,4.0106,4.0104,4.0102,4.0103,4.0103,4.0122,4.01,4.01,4.0101,4.0138,4.0139,4.014,0,0,0,0,0,0,4.0119,4.012,4.0125,4.0121,4.0121,4.0113,4.0116,4.0114,4.0115,4.0108,4.0106,4.0108,4.0102,4.0102,4.0112,4.0121,4.0101,4.0101,4.0137,4.0138,4.0139,4.016,0,0,0,0,0,0,4.0119,4.012,4.0126,4.0121,4.0122,4.0133,4.0116,4.0114,4.0116,4.0114,4.011,4.0109,4.0101,4.0111,4.0112,4.0122,4.0101,4.0136,4.0138,4.0139,4.0158,4.0161,4.0164,0,0,0,0,0,4.0119,4.0132,4.0127,4.0128,4.0129,4.0134,4.0134,4.0126,4.0117,4.0123,4.0118,4.0109,4.012,4.0112,4.0113,4.0123,4.0136,4.0137,4.0139,4.0157,4.0161,4.0164,0,0,0,0,0,0,4.0138,4.0131,4.0125,4.0137,4.0136,4.0131,4.0138,4.013,4.0132,4.013,4.0119,4.0119,4.013,4.0127,4.0119,4.0139,4.0126,4.0128,4.014,4.0143,4.0146,4.0146,4.0102,0,0,0,0,0,4.0144,4.0149,4.0143,4.0154,4.0154,4.0146,4.0148,4.0142,4.014,4.014,4.0136,4.0135,4.0139,4.0141,4.0144,4.0158,4.0157,4.0165,4.0168,4.0171,4.0172,4.0179,4.0183,4.0145,4.0145,4.0145,0,0,4.0156,4.0153,4.0156,4.0158,4.0156,4.0161,4.0146,4.0152,4.0155,4.0141,4.0149,4.0147,4.0145,4.0157,4.0162,4.0155,4.0183,4.0173,4.0175,4.0175,4.0181,4.0185,4.0188,4.0146,4.0146,4.0146,0,0,4.0179,4.0178,4.0187,4.0186,4.0184,4.0179,4.0181,4.0177,4.0175,4.0183,4.0172,4.0177,4.0183,4.0182,4.0183,4.0207,4.0198,4.0208,4.0223,4.023,4.0233,4.0236,4.0244,4.0247,4.021,4.021,4.021,0,4.0194,4.0201,4.0192,4.0199,4.02,4.0187,4.0196,4.0196,4.0195,4.0196,4.0189,4.0197,4.0195,4.0206,4.0212,4.0213,4.0215,4.0208,4.0234,4.0236,4.0238,4.0246,4.0249,4.0211,4.0211,4.0211,4.0211,0,4.0219,4.0224,4.0232,4.0231,4.0233,4.0241,4.0233,4.0237,4.023,4.0226,4.0235,4.0233,4.0235,4.0237,4.0231,4.0248,4.0244,4.0235,4.0222,4.0243,4.025,4.0253,4.0213,4.0213,4.0212,4.0212,0,0,4.0253,4.0248,4.0251,4.0251,4.0248,4.0252,4.026,4.0261,4.0264,4.0264,4.027,4.0276,4.0269,4.0269,4.0263,4.027,4.0288,4.026,4.026,4.0265,4.0305,4.0311,4.0314,4.0283,4.0283,4.0284,4.0305,0,4.0275,4.0287,4.028,4.0293,4.0297,4.0286,4.0293,4.0292,4.0288,4.0292,4.0288,4.0292,4.0282,4.0283,4.0289,4.0285,4.0296,4.0283,4.0288,4.0288,4.0287,4.0318,4.0324,4.0344,4.0308,4.0308,4.0309,0,4.0301,4.0303,4.0316,4.0313,4.0315,4.0321,4.0322,4.0325,4.0325,4.0322,4.0323,4.0315,4.0323,4.0311,4.0321,4.0312,4.0314,4.0312,4.0313,4.0312,4.0299,4.0317,4.035,4.0353,4.0313,4.0313,4.0312,0,4.0324,4.0329,4.0338,4.0338,4.0335,4.0339,4.0338,4.0337,4.0338,4.034,4.0341,4.0343,4.0344,4.0346,4.034,4.0332,4.035,4.0338,4.0348,4.0348,4.0351,4.035,4.0384,4.0354,4.0354,4.0354,4.0354,0,4.0348,4.0357,4.0348,4.0353,4.0363,4.0355,4.0364,4.0362,4.0361,4.0365,4.0356,4.0361,4.0353,4.0357,4.0352,4.036,4.0361,4.0359,4.0357,4.0359,4.0359,4.0359,4.0357,4.0355,4.0354,4.0354,4.0354,0,4.0374,4.0369,4.0378,4.0374,4.0373,4.038,4.0377,4.0382,4.0378,4.0384,4.0385,4.038,4.0384,4.0378,4.0382,4.0378,4.039,4.0387,4.039,4.0388,4.0398,4.0397,4.0431,4.0435,4.0404,4.0404,4.0405,0,4.039,4.0396,4.0393,4.0395,4.0395,4.0399,4.0401,4.0394,4.0396,4.0396,4.04,4.0404,4.0406,4.0413,4.0409,4.0412,4.0408,4.042,4.0408,4.041,4.0407,4.0407,4.0407,4.0422,4.0423,4.0423,4.0423,0,4.0417,4.0414,4.0417,4.0419,4.0421,4.0423,4.0423,4.0426,4.0419,4.0422,4.0426,4.0427,4.0431,4.0434,4.0436,4.0435,4.0428,4.0427,4.0429,4.0431,4.0432,4.043,4.0395,4.0426,4.0426,4.0425,4.0425,4.0425,4.0438,4.0443,4.0441,4.0445,4.0445,4.0446,4.045,4.0447,4.045,4.0452,4.0448,4.0453,4.0453,4.0454,4.0454,4.0458,4.0453,4.0456,4.0457,4.0458,4.0459,4.0432,4.0459,4.0458,4.0458,4.0458,4.0458,0,4.0464,4.0463,4.0466,4.0467,4.047,4.0464,4.0464,4.0467,4.0471,4.0471,4.0474,4.0478,4.0482,4.0479,4.0481,4.0485,4.0482,4.0486,4.0485,4.0485,4.0464,4.0461,4.0489,4.0489,4.0489,4.0488,4.0488,4.0488,4.0478,4.0486,4.0483,4.0491,4.049,4.0494,4.0495,4.0496,4.0496,4.0502,4.0504,4.0502,4.0501,4.0504,4.0506,4.0505,4.0507,4.0512,4.051,4.0489,4.0486,4.0484,4.0481,4.0512,4.0512,4.053,4.053,4.0531]}]]